GEFSGL_500_meanwind_108.txt.gz
Wind_Speed
22 22 22 22 22 22 22 22 22 22 22 22 22 22 22 21 21 21 22 23 23 24 24 25 26 27 27 27 28 28 28 28 28 28 28 28 28 29 29 29 28 28 29
23 23 23 23 23 23 22 22 22 22 22 22 21 22 22 22 21 21 21 22 22 23 23 24 24 26 26 26 27 27 26 26 26 27 26 26 25 25 26 26 26 26 27
24 24 24 24 24 23 23 22 22 22 22 22 22 22 22 22 22 21 22 22 22 22 22 22 23 24 24 25 25 25 24 24 25 25 24 24 24 24 25 26 26 26 26
25 25 25 24 24 24 23 23 23 23 23 23 22 22 23 22 22 22 22 22 22 22 22 23 23 23 23 23 22 22 23 23 23 23 22 22 22 23 23 23 23 23 23
25 25 25 25 25 25 24 24 24 23 24 24 23 23 22 22 22 22 21 21 20 20 20 20 21 21 20 20 20 20 21 21 20 20 20 20 21 21 22 21 21 21 22
25 25 25 24 24 24 24 24 23 23 23 23 23 23 22 22 21 21 20 20 19 18 18 17 17 17 18 19 19 19 19 19 19 19 19 19 20 19 19 20 20 21 22
23 23 23 23 23 23 23 22 22 21 21 21 21 21 21 20 20 19 19 18 18 17 16 16 16 15 16 16 17 17 18 18 19 19 18 18 18 17 18 19 19 19 19
22 21 22 22 22 21 21 21 20 19 19 19 19 18 18 18 17 17 16 16 15 14 14 14 14 13 14 15 15 16 16 16 17 17 17 17 17 16 16 16 16 17 17
20 20 20 20 19 19 19 18 17 16 16 16 16 15 15 16 16 15 14 14 13 12 12 12 12 12 13 14 14 14 14 14 14 14 14 14 14 14 14 14 14 14 14
19 19 18 17 17 16 15 14 14 14 13 13 13 13 13 13 13 13 12 11 11 10 9 9 9 8 9 11 11 11 11 11 11 11 12 12 12 12 11 11 11 12 12
16 16 16 15 14 14 12 11 11 11 10 10 10 9 8 8 9 9 9 8 8 8 8 7 6 6 7 8 8 9 9 9 9 10 9 9 9 9 9 9 9 9 10
14 13 13 11 10 10 9 8 8 8 8 7 6 5 5 6 6 7 7 7 7 7 7 6 6 6 6 6 7 7 7 7 7 7 6 6 6 6 7 7 7 7 7
10 9 8 7 7 6 5 5 5 4 4 4 4 4 5 6 7 7 7 7 7 6 5 5 5 5 5 5 5 4 4 4 4 4 4 4 4 3 3 4 4 5 5
5 4 4 4 3 3 2 2 2 2 2 2 2 4 5 6 7 7 6 6 5 5 5 4 4 4 4 4 3 3 2 2 2 1 1 0 1 1 2 2 3 3 4
4 3 2 2 1 0 0 1 2 2 2 3 3 5 6 7 6 5 6 6 5 5 5 5 5 5 5 5 5 4 4 3 3 2 2 2 2 2 2 3 3 4 5
4 3 2 2 3 3 4 4 4 4 5 6 6 6 7 6 6 6 6 6 7 7 6 6 7 7 6 6 6 6 5 5 5 5 4 4 4 4 4 4 5 5 6
5 4 4 5 6 6 6 6 7 7 7 8 8 7 7 7 7 7 8 8 8 8 8 8 8 8 9 9 8 8 7 7 7 6 6 5 5 5 5 5 6 6 7
6 6 7 7 7 7 7 7 8 8 9 9 9 9 9 9 9 9 9 10 10 10 11 11 11 11 11 10 9 9 8 8 8 8 7 7 7 6 6 7 7 7 8
9 9 8 8 8 8 8 8 9 9 10 10 10 10 11 11 11 12 12 12 13 13 12 12 12 12 12 11 10 10 10 10 9 9 8 8 8 8 8 8 8 8 9
10 10 10 10 10 11 10 10 11 11 11 11 12 12 13 14 14 14 14 14 14 14 14 13 13 13 13 12 12 11 11 11 10 9 9 9 8 8 9 9 9 9 10
11 11 11 12 12 12 13 13 13 14 14 15 15 15 15 15 15 15 15 15 15 15 15 14 14 14 14 14 13 13 12 12 11 11 10 10 9 9 9 9 10 10 11
13 13 13 14 14 14 15 15 15 16 16 17 17 17 17 17 17 17 17 17 17 17 17 17 17 16 16 15 15 14 13 13 12 11 11 10 10 10 10 10 11 11 12
14 14 15 15 16 16 17 17 17 17 18 18 18 18 18 18 18 19 19 19 19 18 18 18 17 17 16 15 15 14 13 12 12 11 11 11 11 11 11 11 12 12 13
15 15 16 16 17 18 18 18 18 18 18 18 18 18 19 19 19 19 19 19 19 18 18 18 17 16 15 14 13 12 12 11 11 11 11 11 11 11 12 12 13 14 16
15 15 16 17 18 18 19 18 18 18 18 18 18 19 19 19 19 18 18 18 17 17 17 16 15 14 13 13 12 11 11 10 10 10 10 11 11 12 13 14 16 17 18
15 15 16 16 17 17 17 17 17 17 17 17 18 18 18 18 18 17 17 17 17 16 16 15 14 13 12 11 11 10 9 9 10 10 10 11 12 13 15 16 17 19 20

GEFSGL_500_meanwind_114.txt.gz
Wind_Speed
25 25 25 25 25 25 25 25 25 25 25 25 26 26 26 27 27 27 27 27 27 27 27 27 27 28 28 28 29 30 30 30 31 31 30 31 30 30 29 30 32 33 33
26 26 26 26 26 26 26 26 25 25 25 25 26 26 26 26 26 26 26 26 26 26 25 26 26 27 27 28 29 29 30 30 30 30 30 30 30 30 30 30 31 32 32
27 27 26 26 26 26 26 26 25 25 24 24 25 25 26 26 27 27 26 26 25 25 25 26 26 26 26 27 27 27 28 28 29 29 29 29 29 29 29 28 28 29 29
26 26 26 27 27 26 26 25 25 25 25 25 25 25 26 26 26 26 26 25 25 25 25 25 25 25 25 26 27 27 27 27 27 28 27 28 28 27 27 28 28 28 28
26 25 25 25 25 25 25 25 25 25 25 25 25 26 26 26 26 26 25 24 24 24 24 24 24 24 25 25 25 25 26 26 25 25 25 25 26 27 27 27 27 27 27
24 25 25 25 25 24 24 25 25 24 25 24 25 25 25 25 25 25 24 24 23 23 23 22 22 21 22 22 22 22 23 23 24 24 25 24 24 24 24 25 25 24 25
23 23 23 24 24 23 23 23 23 23 23 23 23 22 22 22 22 23 23 22 22 21 20 19 18 18 18 18 19 19 19 20 21 22 22 21 21 21 21 21 21 21 21
22 22 22 22 22 22 22 22 21 21 20 20 20 21 21 20 20 21 21 20 20 20 19 18 17 17 17 16 17 17 18 18 19 19 19 19 19 19 19 19 19 18 18
21 22 22 22 21 21 20 19 19 18 18 18 18 18 18 18 19 19 19 19 19 18 17 17 17 16 16 15 15 15 15 15 15 16 17 16 16 16 17 16 15 15 15
19 19 19 19 19 18 18 17 17 17 16 15 15 15 15 15 16 16 16 16 16 15 15 14 14 13 13 13 13 12 12 12 12 12 12 12 13 13 12 11 11 11 11
17 17 16 16 15 15 15 15 14 13 13 12 11 11 11 11 12 12 12 12 12 12 12 12 11 11 10 10 10 9 9 9 9 9 9 9 9 8 8 8 8 8 8
14 13 13 13 12 12 11 10 10 9 9 8 8 8 7 7 7 8 8 9 9 9 9 9 9 9 8 7 7 7 7 7 6 6 5 5 5 5 5 5 5 5 5
10 9 10 9 9 8 7 7 7 6 6 5 4 4 5 5 5 5 5 6 6 6 6 6 6 7 7 7 7 6 5 4 4 4 4 3 3 3 2 2 2 2 3
8 7 7 6 6 5 4 4 4 3 3 2 2 2 3 5 4 4 4 4 4 4 5 6 6 5 6 6 6 6 5 5 5 4 3 3 2 2 2 1 0 1 2
5 5 4 4 3 3 2 1 1 0 1 1 2 2 3 3 4 4 4 5 5 5 6 6 7 7 7 8 8 7 7 6 5 5 4 4 4 4 4 3 3 2 3
3 2 3 2 3 3 3 3 3 3 3 4 4 5 5 4 5 5 5 6 7 7 8 8 9 9 9 9 9 8 8 8 7 7 7 7 6 6 5 5 5 4 4
4 3 4 4 4 4 4 4 4 4 5 5 5 6 6 6 6 7 7 8 8 9 10 10 11 11 11 10 10 10 9 9 9 9 9 8 8 7 6 6 5 5 5
4 4 4 5 5 5 5 6 6 6 6 7 7 8 8 9 9 10 10 10 11 11 11 12 12 12 12 12 12 12 11 11 11 10 10 9 8 7 6 6 5 5 6
6 6 6 6 6 7 8 8 8 8 8 8 9 10 10 10 11 11 11 11 12 13 13 13 13 13 13 13 13 13 13 12 11 10 9 9 8 7 6 6 6 7 7
8 8 8 9 9 10 10 10 10 10 10 11 12 12 12 12 12 12 13 13 14 14 15 15 15 15 15 15 14 14 13 12 11 10 9 8 7 7 6 7 7 8 9
11 10 11 11 11 11 11 11 11 12 13 14 14 14 14 14 14 14 14 15 15 16 16 16 17 17 16 15 15 14 13 12 11 10 9 8 8 7 8 8 8 9 11
11 11 12 12 12 12 13 13 14 14 15 15 15 14 14 15 15 15 16 16 16 17 17 17 17 17 16 15 14 13 12 11 10 9 8 8 8 8 8 8 10 11 13
12 12 12 12 13 13 14 15 15 15 15 15 15 15 15 15 16 16 16 16 17 17 17 17 17 16 15 14 12 11 10 9 8 8 7 7 7 7 9 11 12 13 15
12 12 13 13 13 14 14 14 14 14 15 15 15 16 16 16 16 16 16 16 16 17 16 16 15 13 12 11 10 10 9 8 7 7 6 7 8 9 11 13 14 16 18
12 12 13 13 13 13 13 14 14 14 14 14 15 15 15 15 15 15 15 15 15 15 14 13 12 11 10 9 8 7 6 6 6 6 7 8 9 11 13 14 16 18 20
11 11 11 12 12 12 13 13 13 13 13 13 13 13 13 13 13 13 13 13 13 13 12 11 10 9 8 7 6 5 5 5 6 7 8 9 11 13 15 16 18 21 23

GEFSGL_500_meanwind_120.txt.gz
Wind_Speed
26 26 27 28 28 28 28 29 29 29 29 30 30 31 31 31 31 31 31 31 31 30 30 30 30 31 31 31 31 30 30 31 30 29 29 30 31 30 30 30 30 31 31
26 27 28 28 28 28 28 29 29 29 30 30 31 31 31 31 31 32 32 32 32 31 31 30 30 30 30 29 28 28 28 28 29 29 29 29 29 29 29 30 29 28 28
27 27 27 27 28 28 28 29 29 29 29 30 30 30 29 30 30 31 31 31 31 31 31 30 30 29 28 27 27 26 26 27 27 27 27 28 28 28 28 27 27 27 27
27 27 27 28 28 28 28 28 28 29 29 29 29 29 29 30 30 30 30 30 30 30 30 30 29 29 28 27 27 26 26 26 26 26 26 27 27 26 26 25 26 26 25
26 26 27 27 28 27 27 27 28 28 28 28 29 29 29 29 28 29 29 29 29 29 28 28 27 27 26 26 26 25 24 24 24 24 24 24 24 25 24 24 24 24 24
26 27 27 27 27 27 26 26 26 26 27 27 27 28 28 28 28 28 27 27 27 27 26 25 24 24 23 23 23 22 21 21 22 22 21 21 22 22 21 22 22 22 22
25 26 26 25 25 25 24 25 25 25 26 26 25 26 26 26 26 26 25 25 24 23 22 22 21 21 21 21 21 20 19 19 19 19 19 19 19 19 19 19 19 20 20
25 25 24 24 23 23 23 23 22 23 23 23 23 22 23 22 22 22 23 22 20 20 20 19 19 18 19 18 18 17 16 15 15 16 16 16 16 16 16 15 15 15 16
23 22 22 22 22 22 22 22 21 21 21 21 21 20 20 20 19 18 18 17 18 17 17 17 16 15 15 15 15 14 14 14 13 13 13 13 13 13 13 12 12 12 12
20 20 20 20 20 20 20 19 18 18 18 18 18 18 18 17 16 16 15 15 16 16 16 15 15 14 13 13 13 12 12 12 12 12 12 12 11 11 11 11 10 10 9
17 17 17 17 17 17 16 15 14 14 14 14 14 14 14 14 13 13 13 13 13 13 13 13 13 12 12 11 11 10 9 10 11 10 10 9 9 8 9 9 9 8 7
14 13 12 13 13 12 12 11 11 10 11 11 11 11 10 10 10 10 10 10 10 10 10 10 10 10 10 10 9 9 9 8 8 7 7 6 6 6 6 5 5 4 4
10 10 10 10 9 9 8 8 7 7 7 7 7 7 7 8 7 7 7 7 8 8 8 9 9 9 9 9 8 8 8 8 8 7 6 5 5 5 4 4 4 3 2
7 7 7 7 6 6 6 5 5 4 4 4 4 4 4 4 4 4 4 5 6 7 7 9 9 8 8 8 8 7 8 8 7 7 7 6 5 5 5 5 4 3 2
6 6 5 4 4 4 3 3 2 2 2 2 2 1 1 2 3 3 4 4 5 6 7 9 9 9 9 9 9 9 9 9 9 8 7 7 7 7 6 5 4 4 3
5 4 4 4 4 3 2 2 2 2 1 1 1 1 2 3 4 5 5 6 7 8 9 9 10 10 11 11 11 11 11 11 10 9 9 8 8 7 7 6 6 5 4
5 5 4 4 3 3 3 3 4 4 3 3 3 3 4 4 5 6 6 7 9 10 10 11 12 12 12 13 13 13 13 12 11 11 10 10 9 9 8 7 6 5 4
6 6 5 5 5 5 5 5 4 5 5 5 5 5 6 6 7 8 8 9 11 12 12 12 13 13 14 14 15 15 14 13 13 12 11 10 10 9 8 6 5 5 5
8 8 8 7 7 7 6 6 6 6 6 6 7 7 8 8 9 10 10 11 12 13 13 12 13 14 15 15 15 15 15 14 13 12 11 10 9 7 6 6 5 5 5
10 9 9 9 8 8 8 8 8 8 8 8 8 9 9 9 10 11 12 13 13 13 13 14 14 15 15 16 15 15 14 13 12 11 10 8 7 6 6 5 5 6 7
11 10 10 9 10 10 10 10 10 10 10 10 10 11 11 12 13 13 13 14 14 14 14 15 15 15 16 16 15 14 13 12 11 10 9 8 6 5 5 5 6 7 8
11 11 11 11 11 11 11 12 12 12 12 13 14 14 15 15 15 15 15 15 15 14 15 15 15 15 15 15 14 13 12 11 9 8 7 6 5 5 5 5 7 8 9
13 13 13 13 13 13 13 13 13 14 14 14 15 15 16 16 16 15 15 15 15 15 15 15 15 14 13 12 12 11 10 9 8 7 6 5 4 4 5 6 8 9 11
13 13 13 13 13 14 14 14 14 13 14 14 14 14 15 15 14 14 14 14 14 15 14 14 13 12 11 11 10 9 8 6 5 4 4 3 4 5 6 8 10 12 14
12 12 12 12 12 12 12 12 12 12 13 13 13 13 13 13 13 13 13 13 13 13 12 11 11 10 9 9 8 6 5 4 3 2 3 4 5 6 8 10 12 14 16
11 11 11 11 11 11 11 11 11 11 11 11 11 11 11 11 11 11 11 11 10 10 9 9 8 7 7 6 4 3 2 1 2 3 4 6 7 9 10 13 15 17 19

GEFSGL_500_meanwind_126.txt.gz
Wind_Speed
28 28 28 28 27 27 27 27 27 27 28 28 28 28 29 29 29 29 30 30 30 30 30 30 29 29 29 29 29 29 29 28 28 27 27 27 28 28 29 29 28 28 27
28 28 28 28 28 28 27 27 27 27 28 28 28 28 28 29 29 30 30 30 30 30 31 30 29 30 30 30 30 30 29 29 29 28 27 26 26 27 28 27 26 26 25
28 29 29 28 28 28 28 28 28 28 28 28 28 28 28 28 29 30 30 31 31 30 30 30 30 29 29 29 29 30 30 29 29 28 28 27 26 25 25 24 25 24 24
26 26 26 27 27 27 27 27 27 28 28 29 29 28 28 29 29 29 29 29 29 30 30 29 30 30 29 29 28 29 29 28 27 27 26 26 25 23 22 22 22 22 22
25 26 26 26 27 26 26 26 26 27 28 28 27 27 28 28 28 28 27 28 27 27 28 28 28 28 28 28 28 27 27 26 26 25 24 23 21 20 20 20 20 20 19
25 25 25 26 26 26 25 25 26 26 26 26 27 27 26 26 26 26 26 26 26 26 26 26 27 27 27 26 26 25 25 24 24 23 22 21 19 19 19 18 17 16 15
23 23 24 24 24 24 24 25 25 25 25 25 25 24 24 24 25 25 25 24 24 24 24 24 24 24 25 24 24 23 22 21 21 20 20 19 18 18 17 16 14 14 12
23 24 24 24 24 23 23 24 23 22 22 22 22 22 22 22 21 22 21 21 21 22 22 22 22 21 21 21 20 20 19 18 17 17 17 17 16 15 14 13 12 11 10
22 22 22 23 22 22 22 22 22 21 21 20 19 19 20 20 20 19 19 19 19 19 19 18 18 18 18 17 17 17 16 16 16 16 15 14 13 13 12 11 11 10 10
20 20 20 21 20 20 20 20 19 18 18 18 18 18 19 18 18 18 17 17 16 15 15 15 14 14 14 14 13 14 14 14 14 14 13 13 12 11 11 11 11 10 10
17 17 16 16 15 16 17 17 17 16 16 16 16 16 16 16 16 16 15 14 14 13 13 13 13 12 12 12 12 12 11 12 11 11 11 11 10 10 9 9 9 9 9
15 14 14 13 14 14 14 14 14 14 13 13 13 13 13 13 13 13 13 12 12 12 11 11 10 11 11 11 11 11 10 10 10 10 10 9 9 9 8 8 8 7 6
11 11 12 12 12 12 11 11 10 11 10 10 10 10 10 10 10 9 9 10 9 9 9 9 9 8 9 10 10 10 10 10 10 9 9 9 8 7 7 6 6 5 4
9 10 10 10 9 9 9 8 8 8 8 7 7 7 7 8 8 7 7 7 7 7 7 7 8 8 8 9 11 12 11 10 9 9 8 7 7 6 6 5 5 4 4
9 9 8 8 8 8 8 7 6 5 5 5 5 5 5 5 5 4 4 4 4 4 5 6 6 7 7 9 10 10 10 9 9 9 9 8 7 6 6 6 5 4 4
8 7 6 7 7 6 6 5 4 4 3 3 3 3 3 3 2 1 2 2 2 3 4 5 6 7 8 9 9 10 10 9 9 9 9 8 8 7 7 6 5 4 3
7 7 6 6 6 6 6 5 5 5 4 5 5 4 4 3 3 3 3 3 4 5 6 6 7 7 8 9 9 10 10 11 10 10 9 9 9 8 7 6 5 4 3
8 7 7 7 7 7 6 6 6 6 6 6 6 6 6 6 6 6 6 6 7 8 7 7 8 9 10 10 11 11 11 11 11 10 10 10 9 8 7 7 5 4 3
9 8 8 8 7 7 7 7 7 7 6 6 6 7 7 8 8 8 8 8 8 9 9 10 11 11 11 11 12 12 12 11 11 11 10 10 9 8 7 5 4 3 2
10 10 9 9 8 8 9 9 9 8 8 8 8 8 8 8 8 9 10 10 10 10 11 11 12 11 12 12 12 12 13 12 11 11 10 9 8 6 5 4 3 2 2
11 11 11 10 9 9 9 9 9 9 9 9 9 9 9 9 9 9 10 11 11 11 11 12 12 12 12 12 12 13 12 11 10 9 8 7 6 5 4 3 2 2 4
12 12 12 11 11 10 10 10 10 10 10 9 9 9 9 9 10 10 11 11 11 11 12 12 12 12 12 12 12 11 10 9 8 7 7 6 4 3 2 1 2 4 6
13 13 13 12 11 11 11 11 11 11 10 10 10 10 10 11 11 11 11 12 11 11 11 12 12 12 11 11 10 9 8 7 7 6 5 3 2 1 1 3 4 6 8
14 13 13 13 12 12 11 11 11 10 10 10 10 10 10 10 10 10 10 10 10 10 9 10 10 9 9 8 7 7 6 5 4 3 2 0 1 3 4 6 7 9 11
12 12 12 12 11 11 10 10 10 9 9 9 8 8 8 9 9 8 8 8 7 7 7 7 7 6 6 6 5 4 3 2 1 1 2 3 4 6 7 9 11 13 14
10 10 10 9 9 9 8 8 8 8 7 7 6 6 6 6 6 6 6 5 5 5 5 5 4 4 3 3 2 2 3 3 3 4 5 7 8 9 11 13 14 15 17

GEFSGL_500_meanwind_132.txt.gz
Wind_Speed
25 26 26 26 26 25 25 25 24 24 23 23 23 24 25 26 26 26 27 27 27 28 28 28 28 29 29 28 28 28 28 28 27 27 28 27 27 27 27 26 26 27 26
24 24 26 26 25 25 25 24 24 24 24 24 24 24 24 25 25 26 27 28 28 28 28 28 28 29 29 29 29 29 29 29 28 27 28 28 27 27 27 26 26 26 25
24 24 25 24 24 25 24 24 24 24 24 24 24 24 24 24 25 25 26 27 28 28 29 29 29 29 29 29 29 29 28 28 28 28 28 28 27 27 27 26 26 25 24
24 24 23 23 22 23 24 23 23 23 24 24 24 24 24 24 24 25 25 26 26 27 27 28 28 28 29 29 29 28 28 27 27 27 27 27 27 27 27 25 24 24 23
22 21 21 21 22 22 23 23 23 23 23 24 25 24 24 24 24 25 25 25 25 25 25 26 26 26 28 29 29 28 28 27 26 25 25 26 26 26 25 23 23 22 22
20 20 21 21 22 22 23 24 23 23 22 23 23 23 23 23 24 24 24 24 24 24 25 25 25 26 26 26 26 26 26 26 25 24 24 24 23 23 22 22 21 20 19
21 21 21 21 21 22 22 22 22 22 22 22 22 22 22 22 22 23 23 23 23 23 23 24 24 24 24 24 24 24 23 23 23 22 22 22 22 21 20 20 19 19 18
20 20 20 21 21 20 20 20 20 20 20 20 21 20 20 20 21 21 21 21 21 21 22 22 22 23 22 22 21 22 22 21 21 20 21 21 21 20 20 19 19 18 17
18 18 18 18 18 18 19 19 19 19 18 18 18 18 18 18 18 18 19 19 19 20 20 20 21 21 21 20 20 20 20 20 20 19 19 19 18 18 17 17 17 16 15
16 16 16 16 16 17 16 16 16 16 16 17 16 16 15 16 16 17 17 17 17 17 17 17 17 18 18 18 18 19 18 18 18 18 17 17 16 16 16 16 15 15 14
13 13 13 13 13 13 13 13 13 13 13 13 13 13 13 14 14 15 15 15 15 15 15 14 14 14 15 15 16 17 17 16 16 16 16 16 16 15 15 14 14 13 13
11 11 10 10 10 10 10 11 11 11 11 11 11 11 12 12 12 12 12 12 12 12 12 12 12 12 12 12 13 14 14 14 15 15 15 15 14 14 14 13 13 12 12
9 8 8 8 9 10 10 10 9 9 9 9 9 9 9 10 10 10 10 10 9 8 8 9 10 10 10 10 10 11 12 13 13 13 14 14 14 13 13 12 11 11 10
8 8 8 9 10 10 9 9 8 7 7 7 7 7 8 7 7 7 6 6 5 5 4 5 6 7 8 9 10 11 12 13 13 13 13 13 12 12 11 11 10 9 9
9 9 9 10 10 9 9 9 9 8 7 5 5 5 5 5 4 4 3 3 2 2 1 2 4 5 6 8 9 10 11 12 12 12 12 12 12 11 11 10 9 8 7
10 10 10 10 9 9 10 10 9 8 7 5 4 4 4 3 3 3 2 2 2 3 3 3 5 5 6 7 8 8 9 11 11 11 11 12 11 10 10 9 8 7 7
11 10 10 10 10 10 9 8 8 8 7 6 6 5 4 5 5 5 5 5 5 4 4 5 5 5 6 6 7 7 9 9 10 11 12 11 11 10 9 8 7 6 6
11 10 10 10 10 10 10 9 8 8 7 7 7 7 6 6 7 7 7 7 6 5 5 6 6 5 6 6 7 8 8 9 10 11 11 10 10 9 8 8 7 6 5
11 11 10 10 10 10 10 9 9 8 7 7 7 8 8 7 7 7 7 7 7 7 7 7 7 7 7 8 8 9 8 9 10 10 9 9 9 8 7 6 6 5 5
13 12 11 11 10 10 10 9 9 9 8 7 7 7 7 7 7 7 7 7 7 7 7 7 7 7 7 7 8 8 8 9 9 9 8 8 7 7 6 5 5 4 4
14 13 12 12 11 10 9 9 9 9 8 8 7 7 7 7 8 8 7 7 7 7 7 7 7 7 7 7 7 7 7 8 8 7 7 7 6 6 5 5 4 4 4
14 13 13 12 11 10 9 9 8 8 8 8 8 7 7 7 7 8 8 7 8 7 7 6 6 6 7 7 6 6 7 7 7 7 6 6 6 5 4 4 4 4 5
14 13 12 11 10 10 10 9 8 8 7 7 7 6 6 6 6 6 7 7 7 6 6 6 6 6 6 6 6 6 5 5 5 6 6 5 5 5 4 4 5 6 7
14 13 13 12 10 9 8 7 6 6 5 5 5 5 5 4 4 5 5 5 5 5 5 5 5 5 5 5 5 4 4 4 5 6 5 5 5 5 6 7 8 9 11
13 13 12 12 10 9 8 7 6 5 4 5 5 4 4 3 3 3 2 2 2 2 2 2 2 2 3 3 4 5 5 5 6 6 7 7 8 8 9 10 12 13 15
13 13 12 11 10 9 8 7 6 5 4 4 4 3 3 2 2 1 1 1 1 1 2 3 3 4 5 5 6 6 7 8 8 9 10 10 11 12 13 14 16 17 18

GEFSGL_500_meanwind_138.txt.gz
Wind_Speed
25 26 27 27 28 28 28 28 27 27 27 27 27 27 27 27 27 28 28 28 29 29 30 30 30 30 30 31 31 31 31 31 30 30 31 31 31 31 31 31 31 30 30
25 25 25 26 27 27 27 28 28 28 28 27 26 26 26 26 26 27 28 29 30 30 30 31 31 31 31 31 31 31 31 31 31 31 31 31 31 31 31 30 30 31 30
25 26 26 26 26 26 27 27 27 27 28 28 27 26 26 26 26 27 27 28 29 30 30 31 31 32 32 32 31 32 32 32 31 31 31 31 31 31 31 31 30 30 30
25 26 25 25 25 25 25 26 26 27 27 27 27 27 26 26 27 27 28 28 29 30 30 31 31 31 32 33 33 33 32 32 32 31 30 30 30 30 30 30 30 30 28
24 24 24 24 25 24 24 24 24 24 25 25 25 25 26 26 26 27 28 28 28 29 29 30 29 30 31 32 32 32 32 32 31 31 30 30 30 30 29 28 28 28 27
22 22 23 23 23 23 23 22 22 23 23 23 23 24 25 25 26 26 27 27 27 27 27 28 29 29 29 29 30 31 31 31 31 31 30 30 29 29 27 27 26 26 26
20 21 20 21 20 20 21 21 21 22 22 23 23 23 24 24 25 25 25 25 25 25 26 26 27 27 27 28 28 29 29 29 30 29 29 29 28 27 26 25 25 24 24
18 18 18 19 19 19 19 20 20 21 21 21 21 21 22 22 22 23 23 23 23 24 24 25 26 26 26 27 26 27 27 27 27 27 27 27 27 26 25 24 23 23 23
16 16 16 17 17 17 17 17 18 18 19 19 19 19 20 20 20 21 21 21 21 22 23 23 24 24 24 24 25 25 25 25 25 25 25 25 25 24 23 23 22 21 20
13 14 14 14 14 15 15 15 16 16 17 17 17 18 18 18 19 18 18 18 19 19 20 20 20 21 21 21 21 22 22 22 23 23 22 22 22 21 21 20 20 19 18
12 12 12 12 12 12 13 13 14 14 14 15 15 15 16 16 16 16 16 17 16 16 16 16 16 16 17 17 18 18 18 19 19 20 20 20 20 20 19 18 17 16 16
11 11 11 11 11 11 11 11 12 12 12 12 12 13 13 13 13 13 14 14 14 14 13 13 13 13 13 13 14 14 14 15 15 16 16 17 17 17 17 16 16 16 15
11 10 10 10 10 10 11 11 11 11 10 10 10 9 9 10 10 11 11 11 11 11 11 10 10 10 9 9 10 11 11 11 12 13 14 14 15 16 16 15 15 14 14
11 11 10 10 10 11 11 11 10 9 9 9 8 8 7 7 7 8 8 8 8 8 7 6 6 6 6 7 8 8 9 10 11 11 12 13 14 14 15 15 14 14 13
12 11 11 10 10 10 10 10 10 9 10 9 8 7 7 7 7 7 6 6 5 4 3 2 2 3 3 4 5 6 7 8 8 9 11 11 12 13 13 13 13 12 11
12 12 11 11 10 10 10 10 10 10 10 9 9 8 8 8 7 7 7 6 5 4 3 1 0 1 1 2 2 4 5 5 7 8 9 9 10 11 12 12 11 10 10
12 12 12 11 11 11 11 11 11 10 10 9 9 8 8 8 8 8 7 6 5 5 3 2 2 1 1 1 1 2 3 4 5 7 7 7 8 10 10 10 9 9 9
14 13 13 12 11 11 11 11 11 11 10 9 9 8 8 8 8 8 7 6 5 5 4 3 3 2 2 2 2 2 3 3 4 5 6 7 8 8 9 10 9 9 8
15 15 14 13 12 11 11 10 11 11 10 10 9 9 8 8 8 9 8 7 6 5 5 4 3 3 3 2 2 2 2 3 4 5 5 6 6 7 8 8 8 8 8
16 15 15 14 12 11 11 11 10 10 10 9 9 9 9 9 9 9 9 7 6 5 4 4 4 3 2 2 2 2 2 2 3 4 5 5 6 6 7 7 8 8 8
15 15 15 15 13 12 10 10 10 10 9 9 9 9 9 9 9 8 8 7 7 6 4 4 3 3 3 3 1 1 1 2 3 4 5 5 6 6 6 7 7 7 8
16 15 15 15 14 13 12 11 10 9 9 8 8 8 9 9 9 8 8 7 7 6 5 4 3 3 3 3 2 1 1 2 3 4 5 5 6 6 7 7 8 9 9
16 16 15 15 14 14 13 12 11 10 9 9 8 8 8 9 8 8 7 7 6 5 5 4 3 3 2 2 2 3 3 4 4 5 6 7 7 8 9 9 10 10 11
16 16 15 15 14 13 13 13 12 11 10 10 9 9 9 8 8 8 8 7 7 6 6 5 4 4 4 4 5 5 5 6 6 7 8 9 10 11 11 11 12 13 14
17 16 16 15 14 14 13 13 12 12 12 11 11 10 9 9 8 9 8 8 8 8 8 8 7 7 7 7 8 8 9 9 9 10 11 12 12 13 14 14 15 16 17
16 16 16 15 15 14 14 13 13 12 12 12 12 12 11 10 10 10 10 10 10 10 10 10 10 10 10 11 11 11 11 12 12 13 14 14 15 16 17 17 18 19 20

GEFSGL_500_meanwind_144.txt.gz
Wind_Speed
25 26 28 29 29 30 30 30 31 31 32 31 31 31 31 30 30 29 30 29 29 29 30 30 30 31 30 30 30 29 29 29 29 29 30 30 30 30 30 30 30 29 29
25 26 27 28 28 28 28 29 30 30 31 30 30 31 30 29 29 28 29 29 29 29 28 28 29 29 30 30 31 30 29 29 29 29 29 29 29 29 29 29 29 29 29
24 25 26 26 27 27 26 27 28 28 29 29 30 29 29 28 28 28 28 28 29 28 28 28 28 29 29 29 30 30 30 30 30 29 28 29 29 29 29 29 28 29 29
24 24 25 26 26 26 26 26 26 27 27 27 28 27 27 28 27 27 27 27 27 28 28 28 28 28 29 29 29 30 30 30 30 29 29 28 29 28 28 28 28 28 27
24 24 24 25 24 24 24 24 24 25 24 25 25 25 24 24 24 25 25 26 25 26 26 27 27 28 28 28 28 29 29 29 30 29 29 29 29 29 28 28 27 27 26
22 23 22 21 20 21 21 21 21 22 22 22 22 21 21 22 22 23 24 24 24 25 25 26 27 28 27 27 27 27 28 28 28 29 29 29 29 28 28 28 27 27 26
20 19 19 19 19 18 18 18 18 18 19 19 19 19 19 20 21 21 22 23 23 23 24 25 25 25 25 26 26 26 27 27 27 27 27 27 27 28 28 28 27 27 26
17 16 16 16 16 16 16 16 16 17 18 17 18 18 18 19 19 19 19 19 20 21 21 22 22 23 23 24 25 25 24 24 25 26 27 27 27 27 27 27 26 26 26
15 15 14 14 14 15 15 15 15 16 16 16 17 16 17 18 18 18 18 18 18 18 19 19 20 20 21 22 22 23 24 24 24 25 25 26 26 26 26 26 26 26 26
13 13 13 13 13 13 13 13 13 13 12 12 13 12 13 14 15 15 15 15 15 16 16 17 17 17 17 18 18 19 21 22 22 22 22 23 23 24 24 23 23 23 23
12 12 12 12 11 12 12 12 12 12 11 11 11 11 11 12 13 13 13 12 13 14 14 14 15 14 14 14 15 16 17 18 19 19 20 20 20 21 21 21 22 21 21
11 11 11 11 11 11 11 11 11 11 11 11 11 11 11 11 11 11 11 11 11 11 12 12 12 12 13 13 13 14 14 15 16 17 18 18 18 18 19 19 19 20 20
11 10 10 10 10 10 10 10 10 9 10 10 10 10 10 10 10 10 10 10 10 10 9 9 9 9 9 9 11 11 12 12 13 14 15 15 16 17 17 18 18 18 18
11 11 10 10 10 10 10 10 10 9 9 9 9 9 10 10 9 9 9 8 8 7 7 7 7 6 6 6 7 8 9 10 11 12 12 13 14 14 16 17 16 17 17
11 11 11 10 10 10 10 10 10 10 10 10 9 9 10 10 9 9 8 8 7 7 6 5 5 4 4 4 5 6 7 7 8 10 11 12 12 13 14 15 16 16 16
11 11 11 11 11 10 11 11 10 10 10 10 10 10 9 9 9 9 9 8 8 7 5 5 4 3 2 2 2 3 4 5 6 8 9 10 11 12 13 14 14 14 15
12 12 12 11 11 11 10 10 10 10 9 9 9 9 9 9 9 9 9 9 8 7 5 4 3 3 3 3 2 2 2 3 4 5 7 8 9 11 12 13 14 14 14
13 12 12 12 12 12 12 11 11 10 9 9 9 9 9 9 9 9 9 9 8 7 6 5 4 3 3 3 3 2 3 3 4 5 6 7 9 10 10 11 12 13 14
13 13 13 13 13 12 12 12 11 10 10 10 9 9 9 8 8 8 9 9 8 7 6 5 5 5 5 4 3 3 3 4 4 5 6 8 8 9 10 10 11 12 13
13 13 14 14 14 13 13 12 12 11 11 10 10 10 10 9 9 9 9 8 7 7 6 6 6 6 5 4 4 3 3 4 4 5 6 7 8 8 9 9 10 11 12
14 13 14 14 14 14 13 13 13 12 12 11 11 11 10 9 9 9 8 8 8 7 7 7 7 7 6 5 5 5 4 4 5 6 7 8 8 9 9 10 11 12 13
14 14 14 14 14 14 14 13 13 13 13 12 12 11 11 11 10 10 10 9 8 8 8 8 8 7 7 7 7 7 6 6 6 7 8 8 9 10 11 12 13 14 15
14 14 14 14 14 14 14 14 13 13 13 13 13 13 12 11 11 11 11 11 10 10 9 9 9 9 8 8 8 9 9 9 9 10 10 11 12 12 13 14 15 16 17
14 14 14 15 15 15 14 14 14 13 13 13 14 13 13 12 12 12 12 11 11 11 11 10 10 10 10 10 11 11 11 11 12 12 13 14 14 15 16 16 17 18 19
15 15 15 15 15 15 15 14 14 14 14 14 14 14 14 14 14 13 12 12 11 12 12 12 12 12 13 13 13 13 13 13 14 15 15 16 16 17 18 19 20 20 21
16 16 16 16 16 16 16 15 15 15 15 15 15 15 15 15 15 14 14 14 14 14 14 14 14 15 15 16 16 16 16 16 17 17 18 18 19 20 21 22 22 23 24

GEFSGL_500_meanwind_150.txt.gz
Wind_Speed
28 28 28 27 27 28 28 28 28 28 29 29 29 29 30 29 29 29 29 29 29 29 29 28 28 28 28 29 29 29 29 29 29 29 30 30 28 28 28 28 29 28 28
26 26 26 27 27 28 27 27 28 29 29 29 29 28 28 28 28 28 28 28 29 29 28 28 27 27 28 28 28 28 28 29 29 28 28 29 29 28 28 28 28 28 28
25 25 25 26 26 26 26 26 26 27 28 27 26 26 26 27 27 27 26 26 26 27 27 27 27 27 27 27 28 27 27 27 27 27 27 28 28 28 27 27 27 27 27
24 24 24 25 25 25 25 25 25 25 24 24 24 24 25 25 24 25 25 26 25 25 26 26 26 26 26 26 26 27 27 26 26 26 27 26 27 27 27 27 27 26 26
23 22 23 23 23 22 23 22 22 23 22 22 22 22 22 22 22 23 24 25 25 25 24 24 24 24 24 25 25 25 26 25 25 26 26 26 26 26 26 27 27 26 26
22 21 21 21 20 21 21 21 21 20 20 20 20 21 21 21 21 21 21 22 22 22 22 22 23 23 24 24 24 24 25 25 24 25 25 25 25 26 25 25 26 26 26
20 20 20 19 19 19 20 20 19 19 19 19 20 20 20 20 19 19 20 20 19 20 21 21 22 22 23 23 23 23 23 24 24 25 25 25 25 25 25 25 25 25 25
19 18 18 18 18 18 19 19 17 17 17 17 17 17 17 17 17 18 17 17 18 19 19 20 21 21 21 22 22 22 22 23 23 23 24 24 25 25 25 24 24 25 25
18 17 17 17 17 17 17 17 16 16 16 16 17 16 15 15 15 15 15 16 17 17 18 19 18 18 19 19 19 20 20 20 21 21 22 23 24 24 25 25 25 24 24
17 16 16 16 16 16 15 15 15 14 14 14 15 15 14 14 14 14 15 16 16 17 18 17 16 17 16 16 16 16 16 17 18 18 19 21 21 22 22 23 24 24 24
16 15 15 16 15 15 13 13 13 14 13 13 13 13 13 13 14 14 14 15 15 15 16 14 14 14 13 13 13 13 13 14 15 16 17 18 19 20 20 21 22 22 23
16 16 15 15 13 13 12 13 13 13 12 12 13 14 14 13 14 13 14 14 15 14 13 13 13 13 12 11 11 11 12 12 14 15 16 16 17 17 18 19 20 21 22
16 15 15 14 13 13 12 13 12 12 12 12 13 13 13 14 14 14 14 14 14 14 13 13 12 12 11 11 10 10 11 12 12 13 13 13 14 15 17 18 18 19 20
15 15 14 14 14 13 13 12 12 12 12 13 13 13 13 13 13 13 14 14 13 13 12 12 11 11 10 10 10 9 9 10 10 10 11 12 13 14 15 15 16 17 18
14 14 14 15 15 14 13 13 12 13 13 13 12 13 13 13 13 13 13 13 13 12 11 11 11 10 9 9 8 8 7 7 8 9 9 10 11 12 12 13 14 15 16
14 14 14 15 15 15 14 13 13 14 14 14 13 13 13 13 13 13 13 13 12 12 11 10 10 9 8 8 8 7 7 7 7 8 8 8 9 10 10 11 12 13 14
14 15 15 15 15 15 14 14 13 14 14 13 13 13 13 13 12 12 13 13 12 11 10 10 10 9 8 8 8 8 8 8 8 8 8 8 9 9 10 10 12 13 14
15 15 15 15 15 15 14 15 15 15 14 14 14 13 13 13 13 14 13 14 13 12 11 10 10 9 9 9 9 9 9 9 9 8 8 9 10 10 11 11 12 12 13
15 15 15 15 15 15 15 15 15 15 15 15 15 15 14 14 14 14 14 15 14 12 12 11 11 10 10 10 11 11 10 10 10 10 10 11 11 12 13 13 14 14 14
15 15 15 15 16 16 16 16 17 17 16 17 17 16 15 15 15 15 15 15 14 13 13 13 13 12 12 12 12 12 12 12 11 11 11 12 12 13 14 14 14 15 16
15 15 15 16 16 16 16 16 17 17 17 17 17 17 17 16 16 16 16 15 15 14 14 14 13 13 13 13 13 13 13 12 12 12 13 13 13 14 14 14 14 15 16
16 15 15 16 16 16 17 17 18 18 18 18 17 18 18 17 17 17 17 17 16 15 15 15 14 13 14 14 14 15 14 14 14 14 14 14 14 14 15 15 16 17 18
17 17 17 17 17 17 18 18 18 19 19 19 19 19 18 18 18 18 17 17 17 17 17 16 16 15 15 15 16 16 16 16 16 16 16 16 16 16 16 17 18 18 19
18 18 18 18 18 19 19 19 19 20 20 19 19 19 19 18 18 19 19 19 19 18 18 18 17 16 16 17 17 18 18 18 18 18 18 18 18 18 19 19 20 20 21
19 19 19 19 20 20 20 21 21 21 21 20 20 20 20 20 20 21 21 20 20 20 20 19 19 19 19 19 20 20 19 19 19 20 20 21 21 21 21 21 22 23 24
20 20 21 22 22 22 22 22 22 22 23 22 22 22 22 22 22 23 23 22 22 23 23 22 22 22 22 22 22 22 22 22 22 23 23 23 24 25 24 23 23 24 25

GEFSGL_500_meanwind_156.txt.gz
Wind_Speed
25 25 26 25 26 26 25 25 25 24 24 24 24 24 24 24 24 24 23 24 24 23 23 24 25 26 26 26 27 28 28 28 28 29 30 31 31 31 31 31 31 31 31
24 25 25 25 24 23 23 22 23 23 23 23 23 22 22 22 22 22 23 23 23 23 23 23 24 25 25 25 27 28 27 27 27 27 28 29 30 30 30 30 31 32 32
24 24 23 22 22 22 21 21 21 21 22 22 21 21 21 21 21 21 21 21 22 22 22 22 22 23 24 24 25 26 26 26 26 27 28 28 28 30 30 30 31 32 32
23 22 21 21 21 21 21 21 20 20 20 20 19 19 19 20 19 19 20 20 20 21 21 21 21 22 23 23 23 24 25 25 26 26 26 27 27 28 28 29 29 29 30
21 20 20 20 19 20 20 20 19 18 18 18 18 18 18 18 18 18 18 18 19 20 21 21 21 21 21 21 22 22 23 24 25 25 26 26 26 27 27 27 28 28 28
19 19 19 19 19 18 18 17 17 17 17 17 17 17 17 16 15 16 16 17 18 18 18 19 19 19 19 19 20 20 21 22 23 24 25 25 26 26 27 27 27 27 27
18 18 18 18 18 17 16 16 16 16 16 15 16 16 16 15 14 15 16 16 17 17 17 18 18 18 19 19 18 19 19 20 22 23 24 25 26 26 26 27 27 27 27
16 17 17 17 17 16 16 16 15 15 15 15 15 15 15 14 14 15 15 15 16 16 17 17 17 17 17 18 18 18 18 19 20 21 23 24 25 25 25 25 26 26 26
16 16 16 16 15 16 15 15 15 14 14 14 13 13 13 13 14 14 14 15 15 16 16 16 17 17 17 16 16 16 16 16 17 18 20 21 23 23 24 25 25 25 25
15 15 15 15 15 14 14 14 14 14 14 13 13 12 12 13 13 13 14 14 15 15 15 15 16 15 15 15 15 14 14 14 14 15 17 18 19 20 22 24 24 25 26
15 15 16 15 15 14 14 13 13 13 14 13 13 13 12 13 13 14 14 14 15 15 15 15 15 14 14 14 13 12 13 14 14 14 15 16 17 18 20 22 23 24 24
14 15 15 15 14 14 13 13 13 13 14 14 13 13 14 14 14 14 14 14 14 14 14 13 13 12 12 12 12 12 12 12 13 14 14 15 16 17 19 19 20 22 23
14 14 14 14 14 14 14 14 14 14 14 14 14 14 14 14 14 14 14 14 14 14 14 13 12 12 12 12 12 11 11 11 12 13 14 15 16 17 18 18 19 20 21
14 13 14 14 14 14 14 14 15 15 14 14 14 14 14 14 14 14 14 14 14 14 13 13 12 12 12 12 12 11 11 11 12 12 13 14 14 15 15 16 17 18 20
13 13 13 14 14 14 14 15 15 15 15 15 14 15 15 15 15 15 14 14 14 13 13 13 12 11 11 12 12 11 11 11 11 11 11 12 12 13 13 14 15 16 17
13 13 13 14 15 15 16 16 16 16 15 15 15 16 16 15 15 15 16 15 15 14 14 13 12 12 12 11 11 11 10 11 11 11 11 11 12 12 13 13 14 15 16
13 13 13 14 15 16 16 16 17 17 16 16 16 16 16 16 15 16 16 16 15 15 15 14 13 13 12 12 12 12 12 12 11 11 11 11 12 12 13 13 14 15 15
14 14 14 14 15 16 16 17 17 17 17 17 17 17 17 17 17 17 16 16 16 16 16 15 14 14 13 13 13 12 12 12 12 12 12 12 12 12 13 14 14 15 16
15 15 15 15 16 17 17 17 18 18 18 17 17 17 18 18 18 18 18 17 16 16 16 16 15 15 14 15 15 15 15 14 14 14 14 14 14 14 14 14 15 16 16
15 16 16 17 17 18 18 18 18 18 18 18 17 18 19 19 19 19 19 19 18 17 17 17 16 15 15 15 16 16 16 15 15 16 16 16 16 16 16 16 16 17 17
15 16 17 18 18 19 19 18 18 18 18 18 18 19 20 20 20 20 20 20 19 19 18 18 17 17 17 16 16 17 17 17 17 17 18 18 18 18 17 18 18 19 20
16 17 18 19 19 20 20 19 19 19 19 19 20 20 20 20 21 20 21 21 21 20 20 19 18 18 18 18 18 19 19 19 18 18 19 19 19 19 19 20 20 21 21
17 18 19 19 20 21 21 20 20 20 21 21 21 21 21 21 21 21 21 22 22 22 21 21 21 20 20 20 20 21 20 20 20 20 20 19 20 20 20 21 21 22 23
18 19 20 20 21 21 22 22 22 22 23 22 22 22 22 22 22 22 22 23 23 23 23 23 23 22 22 22 21 21 21 22 22 23 23 22 22 22 23 23 23 24 24
20 20 21 22 22 22 22 23 24 24 23 23 23 23 23 24 23 23 24 24 25 25 25 25 24 24 24 25 25 24 24 24 25 25 25 24 25 25 25 25 25 26 27
21 21 22 23 23 23 23 24 24 24 24 24 23 23 24 25 25 25 25 26 27 27 27 26 27 27 27 27 28 28 27 27 27 27 26 26 26 26 26 25 25 26 26

GEFSGL_500_meanwind_162.txt.gz
Wind_Speed
23 23 23 24 24 24 24 24 24 24 24 24 24 24 24 23 24 24 24 25 25 25 26 26 26 26 26 26 26 27 27 27 28 29 30 31 33 34 34 35 35 35 36
22 23 23 23 23 23 23 24 24 23 24 24 23 23 23 23 23 23 24 24 24 24 25 25 25 25 25 25 25 25 26 26 27 28 29 31 32 33 32 33 34 34 34
22 22 23 23 23 23 23 23 23 22 22 22 22 22 22 23 23 23 24 23 23 23 23 23 24 24 25 24 24 24 24 25 25 25 26 29 30 31 32 32 32 32 33
22 22 22 22 22 22 22 22 22 22 21 22 21 21 22 21 21 22 21 21 21 21 21 21 22 23 23 23 23 23 23 24 24 24 24 26 28 30 30 30 31 32 32
21 22 22 22 22 21 21 21 21 21 21 21 21 20 20 19 18 18 19 20 19 19 19 20 20 21 22 23 23 22 22 22 23 23 24 24 26 27 28 29 30 30 31
21 21 21 21 20 19 19 19 19 19 20 19 19 18 17 17 17 17 18 18 18 18 19 19 19 20 20 21 21 22 22 22 23 23 23 24 24 25 27 28 29 30 30
19 19 19 18 18 17 17 17 17 18 17 17 16 17 16 16 16 16 16 17 18 19 19 19 19 20 20 20 20 20 21 21 22 22 23 23 24 24 26 26 27 28 29
17 17 17 17 16 16 16 16 16 16 16 16 16 16 16 16 16 16 16 17 18 18 19 20 20 20 20 20 19 19 19 20 21 21 21 21 22 23 24 25 25 26 27
16 16 15 15 15 16 15 16 16 16 16 16 16 16 16 16 16 17 17 17 18 19 19 20 20 20 20 20 20 19 19 18 18 19 19 19 19 20 21 22 22 23 25
15 14 14 14 15 15 15 16 16 16 16 17 17 17 17 16 16 18 18 18 18 19 19 19 19 19 19 20 19 19 18 17 17 17 17 17 18 18 20 20 21 22 23
14 13 14 14 15 15 15 16 16 17 17 17 17 17 17 16 17 18 18 18 18 18 18 18 18 18 18 17 16 16 16 16 16 16 16 16 17 18 18 19 19 21 22
14 14 14 14 14 15 16 16 17 17 17 18 17 18 18 18 18 17 17 17 17 17 17 17 17 17 16 15 15 15 15 16 16 17 17 17 17 18 18 18 19 20 21
14 14 14 15 15 16 17 17 17 17 18 18 18 18 18 18 18 18 18 18 17 16 16 17 17 16 16 15 15 15 15 15 16 16 16 17 17 17 18 19 19 19 20
13 14 15 15 16 17 17 18 18 18 18 19 19 19 19 18 19 19 19 18 18 17 18 17 16 15 16 16 16 16 15 14 14 15 15 15 16 16 17 17 18 19 19
14 14 15 16 17 17 18 19 19 19 19 19 19 20 19 19 19 19 19 18 18 17 17 18 17 16 16 17 17 16 15 15 15 15 16 16 16 16 16 17 17 18 19
14 15 16 17 18 18 19 19 19 19 19 20 19 20 20 19 18 19 19 19 18 18 18 18 18 17 16 16 17 16 16 16 16 16 16 17 16 16 17 17 17 17 18
15 16 16 17 18 19 19 19 19 19 20 20 20 20 20 20 20 20 19 19 19 19 19 19 19 18 17 17 17 17 17 17 17 17 17 17 17 16 17 17 18 18 19
15 16 17 18 18 19 20 20 20 21 21 21 21 20 20 21 21 21 20 20 20 20 20 20 20 20 19 19 19 18 18 17 18 18 18 18 18 18 18 18 19 18 18
15 17 17 18 19 20 20 21 21 22 22 22 22 22 21 22 23 23 22 22 21 21 21 21 21 21 20 21 20 20 19 18 18 19 19 19 19 19 19 19 19 18 19
16 17 18 19 20 20 21 22 22 23 24 24 24 23 22 22 23 23 23 23 22 22 22 23 22 22 22 21 20 20 21 20 19 20 20 21 21 20 21 20 20 19 19
16 17 19 20 21 21 22 22 23 23 24 25 25 24 24 23 23 24 23 23 23 23 24 24 24 24 23 22 22 22 22 22 22 22 22 22 22 21 22 22 21 21 21
17 18 19 21 21 22 23 23 24 24 25 25 25 25 25 24 24 24 24 24 24 24 25 26 25 25 25 25 25 25 25 25 24 24 24 24 24 23 24 24 23 23 23
17 19 20 21 22 23 23 24 25 26 25 25 25 25 25 26 26 26 26 25 25 26 26 26 26 26 27 26 26 26 26 25 25 25 25 25 25 25 25 25 24 24 24
18 19 20 22 23 23 24 25 26 26 26 26 25 26 26 27 27 28 27 28 28 28 28 27 27 27 27 27 27 27 26 26 26 26 26 26 26 26 25 25 25 25 25
18 19 21 22 23 24 25 25 26 26 26 26 26 26 27 27 28 29 28 28 29 29 29 29 28 29 28 28 28 28 28 28 28 27 27 27 26 26 26 25 25 25 25
18 20 22 23 24 25 26 26 27 27 27 27 27 27 28 29 30 30 30 30 30 30 30 29 29 29 30 30 30 29 30 30 29 28 27 26 26 26 25 25 24 24 25